TimePST,TemperatureF,Dew PointF,Humidity,Sea Level PressureIn,VisibilityMPH,Wind Direction,Wind SpeedMPH,Gust SpeedMPH,PrecipitationIn,Events,Conditions,WindDirDegrees,DateUTC
12:56 AM,8.1,3.9,83,30.06,10.0,Calm,Calm,-,N/A,,Clear,0,2013-01-11 08:56:00
1:56 AM,7.0,3.9,87,30.06,10.0,Calm,Calm,-,N/A,,Scattered Clouds,0,2013-01-11 09:56:00
2:56 AM,8.1,3.9,83,30.07,10.0,West,5.8,-,N/A,,Mostly Cloudy,280,2013-01-11 10:56:00
3:56 AM,17.1,10.9,77,30.06,10.0,West,4.6,-,N/A,,Clear,280,2013-01-11 11:56:00
4:56 AM,16.0,10.9,81,30.06,10.0,WNW,8.1,-,N/A,,Partly Cloudy,290,2013-01-11 12:56:00
5:56 AM,7.0,5.0,92,30.12,10.0,Calm,Calm,-,N/A,,Partly Cloudy,0,2013-01-11 13:56:00
6:56 AM,12.9,9.0,84,30.13,10.0,SSE,4.6,-,N/A,,Mostly Cloudy,150,2013-01-11 14:56:00
7:56 AM,17.1,12.9,84,30.13,10.0,Calm,Calm,-,N/A,,Overcast,0,2013-01-11 15:56:00
8:56 AM,19.0,15.1,85,30.17,10.0,Calm,Calm,-,N/A,,Overcast,0,2013-01-11 16:56:00
9:56 AM,25.0,15.1,66,30.18,10.0,WNW,4.6,-,N/A,,Overcast,290,2013-01-11 17:56:00
10:56 AM,27.0,15.1,61,30.21,10.0,NNW,5.8,-,N/A,,Mostly Cloudy,330,2013-01-11 18:56:00
11:56 AM,28.0,16.0,61,30.20,10.0,North,8.1,-,N/A,,Partly Cloudy,10,2013-01-11 19:56:00
12:56 PM,28.9,15.1,56,30.20,10.0,North,10.4,-,N/A,,Mostly Cloudy,350,2013-01-11 20:56:00
1:56 PM,30.0,14.0,51,30.22,10.0,North,8.1,-,N/A,,Mostly Cloudy,360,2013-01-11 21:56:00
2:56 PM,28.0,12.9,53,30.25,10.0,NNW,5.8,-,N/A,,Scattered Clouds,330,2013-01-11 22:56:00
3:56 PM,28.0,12.9,53,30.23,10.0,North,8.1,-,N/A,,Clear,10,2013-01-11 23:56:00
4:56 PM,21.0,12.0,68,30.26,10.0,North,4.6,-,N/A,,Clear,360,2013-01-12 00:56:00
5:56 PM,10.9,7.0,84,30.31,10.0,Calm,Calm,-,N/A,,Clear,0,2013-01-12 01:56:00
6:56 PM,8.1,5.0,87,30.31,10.0,Calm,Calm,-,N/A,,Clear,0,2013-01-12 02:56:00
7:56 PM,8.1,3.9,83,30.31,10.0,Calm,Calm,-,N/A,,Clear,0,2013-01-12 03:56:00
8:56 PM,8.1,3.9,83,30.31,10.0,SSE,3.5,-,N/A,,Clear,160,2013-01-12 04:56:00
10:56 PM,9.0,5.0,84,30.28,10.0,SSE,5.8,-,N/A,,Clear,160,2013-01-12 06:56:00
11:56 PM,3.9,-0.0,84,30.29,10.0,East,3.5,-,N/A,,Clear,100,2013-01-12 07:56:00